Snowfall_Accumulation
0.1 0.2 0.1 0.1 0.0 0.0 0.2 0.0 0.0 0.0 0.0 0.1 0.0 0.1 0.0 0.0 0.0 0.0 0.0 0.0 0.0 0.0 0.0 0.0 0.0 0.0 0.0 0.0 0.0 0.0 0.0 0.0 0.0 0.0 0.0 0.0 0.0 1.9 1.6 3.3 2.8 1.8 1.0
0.1 0.1 0.1 0.2 0.3 0.2 0.5 0.4 0.3 0.4 0.2 0.3 0.2 0.2 0.1 0.0 0.0 0.0 0.0 0.0 0.0 0.0 0.0 0.0 0.0 0.0 0.0 0.0 0.0 0.0 0.0 0.0 0.0 0.0 0.0 0.0 2.0 1.5 3.4 2.7 5.0 3.9 2.8
0.1 0.1 0.1 0.2 0.3 0.8 1.3 1.3 0.8 1.5 1.0 0.5 0.5 0.3 0.1 0.0 0.0 0.0 0.0 0.0 0.0 0.0 0.0 0.0 0.0 0.0 0.0 0.0 0.0 0.0 0.0 0.0 0.0 0.0 0.0 0.0 1.4 4.3 3.6 2.8 5.2 3.6 2.6
0.0 0.2 0.1 0.4 0.5 0.9 1.6 1.6 1.6 1.2 1.5 1.0 0.5 0.2 0.2 0.0 0.0 0.0 0.0 0.0 0.0 0.0 0.0 0.0 0.0 0.0 0.0 0.0 0.0 0.0 0.0 0.0 0.0 0.0 0.0 1.2 0.9 3.0 5.0 4.6 6.8 5.9 4.9
0.0 0.4 0.5 0.8 1.0 0.7 1.1 1.0 1.3 1.9 1.2 1.1 0.6 0.4 0.2 0.1 0.0 0.0 0.0 0.0 0.0 0.0 0.0 0.0 0.0 0.0 0.0 0.0 0.0 0.0 0.0 0.0 0.9 0.9 0.8 1.8 1.6 2.8 4.7 5.5 5.2 4.7 4.1
0.5 1.0 0.6 0.8 0.3 1.5 2.4 1.1 1.3 0.5 0.4 0.4 0.4 0.6 0.5 0.3 0.4 0.0 0.0 0.0 0.0 0.0 0.0 0.0 0.0 0.0 0.0 0.0 0.0 0.0 0.0 0.0 0.3 0.3 0.9 0.7 1.5 2.8 3.5 3.7 3.6 3.4 2.7
0.4 1.1 1.6 2.1 2.5 2.2 2.7 3.2 3.0 0.5 4.9 4.2 0.2 0.2 0.2 0.3 0.0 0.0 0.0 0.0 0.0 0.0 0.0 0.0 0.7 0.6 0.3 0.8 0.8 0.7 0.8 0.8 0.1 0.1 0.0 0.6 0.5 0.3 0.4 2.0 1.9 1.4 0.9
0.0 0.6 1.5 2.3 2.4 2.9 3.7 4.1 5.3 5.7 6.7 5.1 5.5 4.7 4.0 3.7 0.0 0.0 0.0 0.0 0.5 0.4 0.3 0.2 0.1 0.4 0.1 0.0 0.0 0.0 0.3 0.4 0.1 0.0 0.2 0.2 0.7 1.0 1.1 0.9 0.9 0.8 0.8
0.2 0.6 1.8 2.6 3.8 4.5 5.3 6.0 4.7 3.7 2.8 3.1 5.1 5.5 4.7 6.6 6.4 1.6 0.7 1.7 1.5 3.2 3.1 3.4 0.9 0.2 1.2 0.1 0.1 0.6 0.6 0.5 0.5 0.6 0.7 0.8 0.8 0.7 0.5 0.4 0.4 0.3 0.1
0.5 0.6 1.1 1.8 2.6 3.6 4.6 5.2 5.7 5.0 4.7 3.8 4.1 5.1 5.0 5.2 6.1 7.2 4.6 2.9 2.5 2.7 3.3 3.7 3.1 2.2 2.1 1.4 1.3 0.7 0.6 0.8 0.5 0.4 0.3 0.3 0.2 0.1 0.1 0.0 0.0 0.0 0.0
0.4 0.5 0.7 0.9 1.2 2.0 1.9 2.7 3.1 3.7 3.9 4.1 3.4 4.0 4.5 4.1 4.5 5.2 5.4 4.5 4.9 2.7 2.4 3.0 2.6 2.2 2.1 1.4 0.7 0.5 0.3 0.2 0.2 0.1 0.0 0.0 0.0 0.0 0.0 0.0 0.0 0.0 0.0
0.2 0.2 0.3 0.4 0.9 1.5 0.2 0.9 0.7 1.4 1.3 2.1 2.2 3.0 2.8 2.6 1.7 1.8 1.7 2.4 3.2 2.8 2.5 2.1 1.7 1.3 0.8 0.3 0.0 0.0 0.0 0.0 0.0 0.0 0.0 0.0 0.0 0.0 0.0 0.0 0.0 0.0 0.0
0.0 0.0 0.1 0.2 0.2 0.2 0.0 0.0 0.0 0.0 0.0 0.2 0.3 0.4 0.5 1.4 1.0 0.7 0.3 0.5 0.5 0.4 0.4 0.3 0.1 0.0 0.0 0.0 0.0 0.0 0.0 0.0 0.0 0.0 0.0 0.0 0.0 0.0 0.0 0.0 0.0 0.0 0.0
0.0 0.0 0.0 0.0 0.0 0.0 0.0 0.0 0.0 0.0 0.0 0.0 0.0 0.0 0.1 0.0 0.0 0.2 0.0 0.0 0.0 0.0 0.0 0.0 0.0 0.0 0.0 0.0 0.0 0.0 0.0 0.0 0.0 0.0 0.0 0.0 0.0 0.0 0.0 0.0 0.0 0.0 0.0
0.0 0.0 0.0 0.0 0.0 0.0 0.0 0.0 0.0 0.0 0.0 0.0 0.0 0.0 0.0 0.0 0.0 0.0 0.0 0.0 0.0 0.0 0.0 0.0 0.0 0.0 0.0 0.0 0.0 0.0 0.0 0.0 0.0 0.0 0.0 0.0 0.0 0.0 0.0 0.0 0.0 0.0 0.0
0.0 0.0 0.0 0.0 0.0 0.0 0.0 0.0 0.0 0.0 0.0 0.0 0.0 0.0 0.0 0.0 0.0 0.0 0.0 0.0 0.0 0.0 0.0 0.0 0.0 0.0 0.0 0.0 0.0 0.0 0.0 0.0 0.0 0.0 0.0 0.0 0.0 0.0 0.0 0.0 0.0 0.0 0.0
0.0 0.0 0.0 0.0 0.0 0.0 0.0 0.0 0.0 0.0 0.0 0.0 0.0 0.0 0.0 0.0 0.0 0.0 0.0 0.0 0.0 0.0 0.0 0.0 0.0 0.0 0.0 0.0 0.0 0.0 0.0 0.0 0.0 0.0 0.0 0.0 0.0 0.0 0.0 0.0 0.0 0.0 0.0
0.0 0.0 0.0 0.0 0.0 0.0 0.0 0.0 0.0 0.0 0.0 0.0 0.0 0.0 0.0 0.0 0.0 0.0 0.0 0.0 0.0 0.0 0.0 0.0 0.0 0.0 0.0 0.0 0.0 0.0 0.0 0.0 0.0 0.0 0.0 0.0 0.0 0.0 0.0 0.0 0.0 0.0 0.0
0.0 0.0 0.0 0.0 0.0 0.0 0.0 0.0 0.0 0.0 0.0 0.0 0.0 0.0 0.0 0.0 0.0 0.0 0.0 0.0 0.0 0.0 0.0 0.0 0.0 0.0 0.0 0.0 0.0 0.0 0.0 0.0 0.0 0.0 0.0 0.0 0.0 0.0 0.0 0.0 0.0 0.0 0.0
0.0 0.0 0.0 0.0 0.0 0.0 0.0 0.0 0.0 0.0 0.0 0.0 0.0 0.0 0.0 0.0 0.0 0.0 0.0 0.0 0.0 0.0 0.0 0.0 0.0 0.0 0.0 0.0 0.0 0.0 0.0 0.0 0.0 0.0 0.0 0.0 0.0 0.0 0.0 0.0 0.0 0.0 0.0
0.0 0.0 0.0 0.0 0.0 0.0 0.0 0.0 0.0 0.0 0.0 0.0 0.0 0.0 0.0 0.0 0.0 0.0 0.0 0.0 0.0 0.0 0.0 0.0 0.0 0.0 0.0 0.0 0.0 0.0 0.0 0.0 0.0 0.0 0.0 0.0 0.0 0.0 0.0 0.0 0.0 0.0 0.0
0.0 0.0 0.0 0.0 0.0 0.0 0.0 0.0 0.0 0.0 0.0 0.0 0.0 0.0 0.0 0.1 0.0 0.0 0.0 0.0 0.0 0.0 0.0 0.0 0.0 0.0 0.0 0.0 0.0 0.0 0.0 0.0 0.0 0.0 0.0 0.2 0.2 0.2 0.3 0.2 0.3 0.3 0.4
0.0 0.0 0.0 0.0 0.0 0.0 0.0 0.0 0.0 0.0 0.0 0.0 0.0 0.0 0.0 0.0 0.0 0.0 0.0 0.0 0.0 0.0 0.0 0.1 0.1 0.0 0.0 0.0 0.0 0.1 0.2 0.0 0.2 0.4 0.4 0.4 0.5 0.5 0.6 0.5 0.7 0.9 0.8
0.0 0.0 0.0 0.0 0.0 0.0 0.0 0.0 0.0 0.0 0.0 0.0 0.0 0.0 0.0 0.1 0.1 0.1 0.1 0.1 0.0 0.0 0.0 0.0 0.0 0.0 0.0 0.2 0.2 0.2 0.5 0.5 0.7 0.6 0.8 0.7 0.5 0.6 0.8 0.9 0.9 0.9 0.7
0.0 0.0 0.0 0.0 0.0 0.0 0.0 0.0 0.0 0.0 0.0 0.1 0.2 0.3 0.2 0.3 0.2 0.1 0.1 0.0 0.0 0.0 0.0 0.0 0.0 0.2 0.2 0.3 0.4 0.4 0.6 0.9 0.8 0.7 0.9 0.8 0.7 0.7 0.8 0.8 0.7 0.6 0.5
0.0 0.0 0.0 0.0 0.0 0.0 0.0 0.0 0.1 0.2 0.1 0.3 0.5 0.5 0.4 0.3 0.2 0.1 0.1 0.0 0.0 0.0 0.0 0.0 0.2 0.3 0.4 0.4 0.5 0.6 0.6 0.6 0.8 0.7 0.7 0.7 0.6 0.6 0.7 0.6 0.4 0.3 0.2